AAL366 KCLT-KSAT

Flight info

Callsign AAL366
Flight time 2h 40m
Altitude 38000
Route ESTRR5 IPTAY CHOPZ THRSR MEI AEX CAAGE QERVO3
Aircraft A320/M-SDE3FGHIRWY/LB1

Departure

Time 2026-05-05 07:05
Airport Charlotte Douglas International Airport (KCLT)

Arrival

Time 2026-05-05 09:46
Airport San Antonio International Airport (KSAT)
Time Latitude Longitude Altitude Speed Heading
2026-05-05 06:57 35.22428 -80.94003 729 ft 0 kts 254°
2026-05-05 06:59 35.22432 -80.93982 729 ft 4 kts 265°
2026-05-05 07:00 35.22429 -80.93954 731 ft 4 kts 320°
2026-05-05 07:00 35.22418 -80.93949 730 ft 0 kts 18°
2026-05-05 07:02 35.22422 -80.93947 729 ft 3 kts 18°
2026-05-05 07:02 35.22460 -80.93924 730 ft 9 kts 44°
2026-05-05 07:03 35.22483 -80.93855 731 ft 9 kts 67°
2026-05-05 07:03 35.22502 -80.93777 731 ft 10 kts 84°
2026-05-05 07:03 35.22506 -80.93689 732 ft 11 kts 86°
2026-05-05 07:03 35.22473 -80.93614 731 ft 13 kts 167°
2026-05-05 07:04 35.22438 -80.93611 731 ft 0 kts 176°
2026-05-05 07:04 35.22248 -80.93596 732 ft 63 kts 176°
2026-05-05 07:04 35.21609 -80.93540 725 ft 119 kts 176°
2026-05-05 07:05 35.20631 -80.93462 778 ft 156 kts 176°
2026-05-05 07:05 35.19542 -80.93371 1336 ft 157 kts 178°
2026-05-05 07:05 35.18509 -80.93630 1992 ft 152 kts 220°
2026-05-05 07:05 35.17927 -80.94687 2577 ft 156 kts 249°
2026-05-05 07:06 35.17581 -80.96039 2796 ft 177 kts 250°
2026-05-05 07:06 35.17191 -80.97577 2983 ft 202 kts 251°
2026-05-05 07:06 35.16750 -80.99313 3327 ft 226 kts 251°
2026-05-05 07:06 35.16265 -81.01211 3883 ft 240 kts 251°
2026-05-05 07:07 35.15760 -81.03184 4680 ft 245 kts 251°
2026-05-05 07:07 35.15241 -81.05191 5502 ft 250 kts 251°
2026-05-05 07:07 35.14711 -81.07223 6232 ft 257 kts 250°
2026-05-05 07:07 35.14161 -81.09328 6957 ft 262 kts 250°
2026-05-05 07:08 35.13604 -81.11463 7729 ft 266 kts 250°
2026-05-05 07:08 35.13037 -81.13626 8511 ft 269 kts 249°
2026-05-05 07:08 35.12464 -81.15812 9305 ft 271 kts 249°
2026-05-05 07:08 35.11884 -81.18018 10069 ft 274 kts 249°
2026-05-05 07:09 35.11282 -81.20296 10418 ft 293 kts 249°
2026-05-05 07:09 35.10632 -81.22752 10568 ft 315 kts 249°
2026-05-05 07:09 35.09931 -81.25391 10715 ft 336 kts 249°
2026-05-05 07:09 35.09199 -81.28148 11181 ft 345 kts 250°
2026-05-05 07:10 35.08459 -81.30953 11797 ft 349 kts 250°
2026-05-05 07:10 35.07715 -81.33786 12428 ft 352 kts 251°
2026-05-05 07:10 35.06963 -81.36652 13055 ft 356 kts 251°
2026-05-05 07:10 35.06200 -81.39539 13680 ft 359 kts 251°
2026-05-05 07:11 35.05427 -81.42453 14251 ft 362 kts 251°
2026-05-05 07:11 35.04648 -81.45388 14825 ft 364 kts 251°
2026-05-05 07:11 35.03832 -81.48335 15402 ft 366 kts 250°
2026-05-05 07:11 35.02921 -81.51246 15976 ft 368 kts 248°
2026-05-05 07:12 35.01943 -81.54144 16551 ft 370 kts 247°
2026-05-05 07:12 35.00934 -81.57043 17144 ft 372 kts 247°
2026-05-05 07:12 34.99917 -81.59959 17748 ft 375 kts 247°
2026-05-05 07:12 34.98912 -81.62904 18351 ft 377 kts 248°
2026-05-05 07:13 34.97926 -81.65880 18885 ft 380 kts 248°
2026-05-05 07:13 34.96945 -81.68888 19403 ft 383 kts 249°
2026-05-05 07:13 34.95962 -81.71918 19912 ft 386 kts 249°
2026-05-05 07:13 34.94968 -81.74973 20413 ft 389 kts 249°
2026-05-05 07:14 34.93963 -81.78048 20901 ft 392 kts 249°
2026-05-05 07:14 34.92845 -81.81088 21361 ft 395 kts 242°
2026-05-05 07:14 34.91375 -81.83877 21807 ft 397 kts 237°
2026-05-05 07:14 34.89814 -81.86666 22246 ft 400 kts 237°
2026-05-05 07:15 34.88244 -81.89476 22674 ft 402 kts 237°
2026-05-05 07:15 34.86669 -81.92304 23092 ft 405 kts 237°
2026-05-05 07:15 34.85087 -81.95145 23498 ft 407 kts 237°
2026-05-05 07:15 34.83493 -81.98008 23854 ft 409 kts 237°
2026-05-05 07:16 34.81891 -82.00885 24181 ft 411 kts 237°
2026-05-05 07:16 34.80275 -82.03780 24510 ft 413 kts 237°
2026-05-05 07:16 34.78653 -82.06680 24831 ft 415 kts 237°
2026-05-05 07:16 34.77022 -82.09593 25150 ft 417 kts 237°
2026-05-05 07:17 34.75383 -82.12512 25468 ft 419 kts 237°
2026-05-05 07:17 34.73733 -82.15451 25757 ft 422 kts 237°
2026-05-05 07:17 34.72071 -82.18406 26057 ft 424 kts 238°
2026-05-05 07:17 34.70403 -82.21376 26357 ft 427 kts 238°
2026-05-05 07:18 34.68744 -82.24332 26666 ft 429 kts 238°
2026-05-05 07:18 34.67057 -82.27334 26969 ft 431 kts 238°
2026-05-05 07:18 34.65358 -82.30345 27372 ft 430 kts 238°
2026-05-05 07:18 34.63666 -82.33336 27828 ft 429 kts 238°
2026-05-05 07:19 34.61981 -82.36317 28266 ft 428 kts 238°
2026-05-05 07:19 34.60297 -82.39294 28714 ft 427 kts 238°
2026-05-05 07:19 34.58622 -82.42257 29165 ft 426 kts 239°
2026-05-05 07:19 34.56948 -82.45223 29610 ft 425 kts 239°
2026-05-05 07:20 34.55280 -82.48179 30065 ft 424 kts 239°
2026-05-05 07:20 34.53611 -82.51128 30454 ft 423 kts 239°
2026-05-05 07:20 34.51942 -82.54068 30848 ft 422 kts 239°
2026-05-05 07:20 34.50276 -82.56999 31209 ft 422 kts 239°
2026-05-05 07:21 34.48617 -82.59917 31593 ft 421 kts 240°
2026-05-05 07:21 34.46956 -82.62843 31981 ft 420 kts 240°
2026-05-05 07:21 34.45301 -82.65752 32375 ft 419 kts 240°
2026-05-05 07:21 34.43649 -82.68654 32761 ft 418 kts 240°
2026-05-05 07:22 34.41998 -82.71553 33151 ft 417 kts 240°
2026-05-05 07:22 34.40347 -82.74447 33559 ft 416 kts 240°
2026-05-05 07:22 34.38703 -82.77327 33960 ft 415 kts 241°
2026-05-05 07:22 34.37062 -82.80194 34320 ft 413 kts 242°
2026-05-05 07:23 34.35428 -82.83048 34692 ft 411 kts 243°
2026-05-05 07:23 34.33802 -82.85885 35014 ft 410 kts 243°
2026-05-05 07:23 34.32199 -82.88682 35300 ft 409 kts 243°
2026-05-05 07:23 34.30555 -82.91545 35579 ft 409 kts 243°
2026-05-05 07:24 34.28955 -82.94330 35846 ft 408 kts 243°
2026-05-05 07:24 34.27335 -82.97149 35997 ft 409 kts 244°
2026-05-05 07:24 34.25710 -82.99976 36066 ft 411 kts 244°
2026-05-05 07:25 34.22408 -83.05721 36066 ft 419 kts 244°
2026-05-05 07:25 34.19061 -83.11513 36067 ft 421 kts 243°
2026-05-05 07:26 34.15705 -83.17297 36047 ft 420 kts 244°
2026-05-05 07:26 34.12363 -83.23065 36059 ft 419 kts 244°
2026-05-05 07:27 34.09034 -83.28826 36063 ft 419 kts 244°
2026-05-05 07:27 34.05689 -83.34589 36065 ft 419 kts 244°
2026-05-05 07:28 34.02341 -83.40335 36042 ft 419 kts 244°
2026-05-05 07:28 33.98988 -83.46079 36067 ft 419 kts 244°
2026-05-05 07:29 33.95658 -83.51785 36087 ft 419 kts 244°
2026-05-05 07:29 33.92300 -83.57522 36077 ft 419 kts 244°
2026-05-05 07:30 33.88935 -83.63248 36083 ft 419 kts 244°
2026-05-05 07:30 33.84661 -83.72175 36088 ft 401 kts 258°
2026-05-05 07:31 33.82772 -83.78506 36090 ft 401 kts 258°
2026-05-05 07:31 33.80861 -83.84826 36083 ft 402 kts 258°
2026-05-05 07:32 33.78946 -83.91129 36047 ft 401 kts 258°
2026-05-05 07:32 33.77035 -83.97415 36071 ft 400 kts 259°
2026-05-05 07:33 33.75121 -84.03692 36074 ft 399 kts 259°
2026-05-05 07:33 33.73223 -84.09905 36082 ft 398 kts 259°
2026-05-05 07:34 33.71325 -84.16151 36083 ft 398 kts 259°
2026-05-05 07:34 33.69418 -84.22388 36083 ft 398 kts 259°
2026-05-05 07:35 33.67505 -84.28619 36085 ft 398 kts 259°
2026-05-05 07:35 33.65595 -84.34834 36087 ft 396 kts 260°
2026-05-05 07:36 33.63687 -84.41023 36089 ft 395 kts 260°
2026-05-05 07:36 33.61840 -84.47196 36089 ft 391 kts 262°
2026-05-05 07:37 33.60225 -84.53405 36086 ft 389 kts 263°
2026-05-05 07:37 33.58911 -84.58572 36082 ft 389 kts 263°
2026-05-05 07:38 33.57294 -84.64763 36078 ft 389 kts 263°
2026-05-05 07:38 33.55634 -84.70940 36053 ft 388 kts 264°
2026-05-05 07:39 33.53973 -84.77076 36082 ft 386 kts 264°
2026-05-05 07:39 33.52325 -84.83195 36089 ft 385 kts 264°
2026-05-05 07:40 33.50697 -84.89265 36091 ft 384 kts 264°
2026-05-05 07:40 33.49059 -84.95361 36104 ft 384 kts 264°
2026-05-05 07:41 33.47412 -85.01449 36105 ft 383 kts 264°
2026-05-05 07:41 33.45768 -85.07523 36090 ft 383 kts 264°
2026-05-05 07:42 33.44123 -85.13581 36098 ft 383 kts 264°
2026-05-05 07:42 33.42470 -85.19630 36096 ft 382 kts 264°
2026-05-05 07:43 33.40822 -85.25677 36091 ft 382 kts 264°
2026-05-05 07:43 33.39176 -85.31720 36067 ft 382 kts 264°
2026-05-05 07:44 33.37523 -85.37757 36066 ft 382 kts 264°
2026-05-05 07:44 33.35866 -85.43793 36041 ft 382 kts 264°
2026-05-05 07:45 33.34206 -85.49838 36049 ft 382 kts 264°
2026-05-05 07:45 33.32546 -85.55882 36056 ft 383 kts 264°
2026-05-05 07:46 33.30878 -85.61923 36054 ft 383 kts 264°
2026-05-05 07:46 33.29204 -85.67967 36057 ft 383 kts 263°
2026-05-05 07:47 33.27537 -85.73969 36061 ft 383 kts 263°
2026-05-05 07:47 33.25855 -85.80011 36062 ft 383 kts 263°
2026-05-05 07:48 33.24175 -85.86058 36059 ft 383 kts 264°
2026-05-05 07:48 33.22492 -85.92097 36053 ft 383 kts 263°
2026-05-05 07:49 33.20801 -85.98134 36054 ft 383 kts 263°
2026-05-05 07:49 33.19112 -86.04167 36057 ft 383 kts 263°
2026-05-05 07:50 33.17421 -86.10194 36054 ft 383 kts 263°
2026-05-05 07:50 33.15727 -86.16218 36053 ft 383 kts 263°
2026-05-05 07:51 33.14028 -86.22237 36032 ft 383 kts 263°
2026-05-05 07:51 33.12342 -86.28218 36068 ft 383 kts 263°
2026-05-05 07:52 33.10637 -86.34242 36072 ft 383 kts 263°
2026-05-05 07:52 33.08918 -86.40272 36047 ft 384 kts 263°
2026-05-05 07:53 33.07201 -86.46303 36053 ft 384 kts 263°
2026-05-05 07:53 33.05481 -86.52349 36062 ft 385 kts 263°
2026-05-05 07:54 33.03756 -86.58391 36014 ft 385 kts 262°
2026-05-05 07:54 33.02023 -86.64433 36028 ft 385 kts 262°
2026-05-05 07:55 33.00289 -86.70484 36030 ft 386 kts 262°
2026-05-05 07:55 32.98556 -86.76528 36038 ft 386 kts 262°
2026-05-05 07:56 32.96812 -86.82577 36027 ft 386 kts 262°
2026-05-05 07:56 32.95077 -86.88580 36027 ft 386 kts 262°
2026-05-05 07:57 32.93336 -86.94612 36027 ft 385 kts 262°
2026-05-05 07:57 32.91593 -87.00648 36022 ft 385 kts 262°
2026-05-05 07:58 32.89845 -87.06669 36012 ft 385 kts 263°
2026-05-05 07:58 32.88093 -87.12692 36028 ft 385 kts 262°
2026-05-05 07:59 32.86334 -87.18721 36030 ft 385 kts 262°
2026-05-05 07:59 32.84592 -87.24689 35997 ft 384 kts 262°
2026-05-05 08:00 32.82831 -87.30691 36018 ft 384 kts 262°
2026-05-05 08:00 32.81065 -87.36685 35999 ft 384 kts 262°
2026-05-05 08:01 32.79303 -87.42682 36012 ft 384 kts 262°
2026-05-05 08:01 32.77543 -87.48680 36020 ft 384 kts 262°
2026-05-05 08:02 32.75775 -87.54677 36025 ft 385 kts 262°
2026-05-05 08:02 32.73999 -87.60671 36033 ft 385 kts 262°
2026-05-05 08:03 32.72222 -87.66665 36031 ft 384 kts 262°
2026-05-05 08:03 32.70443 -87.72650 36024 ft 384 kts 262°
2026-05-05 08:04 32.68662 -87.78614 36029 ft 383 kts 262°
2026-05-05 08:04 32.66888 -87.84568 36034 ft 382 kts 263°
2026-05-05 08:05 32.65123 -87.90512 36038 ft 382 kts 263°
2026-05-05 08:05 32.63352 -87.96447 36034 ft 381 kts 262°
2026-05-05 08:06 32.61572 -88.02371 36039 ft 381 kts 262°
2026-05-05 08:06 32.59792 -88.08294 35982 ft 381 kts 262°
2026-05-05 08:07 32.58010 -88.14209 36006 ft 380 kts 263°
2026-05-05 08:07 32.56233 -88.20100 36031 ft 379 kts 263°
2026-05-05 08:08 32.54466 -88.25951 36038 ft 379 kts 263°
2026-05-05 08:08 32.52687 -88.31825 36038 ft 378 kts 263°
2026-05-05 08:09 32.50907 -88.37690 36036 ft 378 kts 263°
2026-05-05 08:09 32.49131 -88.43543 36034 ft 377 kts 263°
2026-05-05 08:10 32.47354 -88.49394 36026 ft 377 kts 263°
2026-05-05 08:10 32.45568 -88.55240 36029 ft 376 kts 263°
2026-05-05 08:11 32.43783 -88.61059 36033 ft 376 kts 263°
2026-05-05 08:11 32.42012 -88.66836 36017 ft 376 kts 263°
2026-05-05 08:12 32.40237 -88.72650 36012 ft 376 kts 263°
2026-05-05 08:12 32.38454 -88.78466 36014 ft 376 kts 262°
2026-05-05 08:13 32.36691 -88.84282 36013 ft 375 kts 263°
2026-05-05 08:13 32.35036 -88.90113 35995 ft 373 kts 264°
2026-05-05 08:14 32.33399 -88.95942 35979 ft 374 kts 264°
2026-05-05 08:14 32.31736 -89.01774 35988 ft 375 kts 263°
2026-05-05 08:15 32.30053 -89.07608 35982 ft 375 kts 263°
2026-05-05 08:15 32.28366 -89.13458 36005 ft 375 kts 263°
2026-05-05 08:16 32.26696 -89.19270 36011 ft 375 kts 263°
2026-05-05 08:16 32.25002 -89.25113 35996 ft 375 kts 263°
2026-05-05 08:17 32.23305 -89.30951 36002 ft 375 kts 263°
2026-05-05 08:17 32.21609 -89.36781 36007 ft 375 kts 263°
2026-05-05 08:18 32.19911 -89.42616 36004 ft 376 kts 263°
2026-05-05 08:18 32.18221 -89.48414 36018 ft 376 kts 263°
2026-05-05 08:19 32.16517 -89.54249 36007 ft 376 kts 263°
2026-05-05 08:19 32.14808 -89.60081 36013 ft 376 kts 263°
2026-05-05 08:20 32.13090 -89.65925 36011 ft 376 kts 263°
2026-05-05 08:20 32.11373 -89.71764 36009 ft 376 kts 263°
2026-05-05 08:21 32.09655 -89.77597 36009 ft 376 kts 263°
2026-05-05 08:21 32.07941 -89.83431 36010 ft 377 kts 263°
2026-05-05 08:22 32.06216 -89.89267 35978 ft 377 kts 262°
2026-05-05 08:22 32.04481 -89.95107 35992 ft 378 kts 262°
2026-05-05 08:23 32.02755 -90.00918 35975 ft 378 kts 262°
2026-05-05 08:23 32.01018 -90.06766 35992 ft 378 kts 262°
2026-05-05 08:24 31.99272 -90.12612 35999 ft 378 kts 262°
2026-05-05 08:24 31.97822 -90.17476 35999 ft 378 kts 262°
2026-05-05 08:25 31.96082 -90.23321 36011 ft 378 kts 262°
2026-05-05 08:25 31.94333 -90.29165 36016 ft 378 kts 262°
2026-05-05 08:26 31.92575 -90.35003 36002 ft 378 kts 262°
2026-05-05 08:26 31.90815 -90.40839 35975 ft 378 kts 261°
2026-05-05 08:27 31.89067 -90.46643 35982 ft 379 kts 261°
2026-05-05 08:27 31.87306 -90.52481 35991 ft 379 kts 261°
2026-05-05 08:28 31.85541 -90.58318 35997 ft 379 kts 261°
2026-05-05 08:28 31.83772 -90.64159 36001 ft 379 kts 261°
2026-05-05 08:29 31.82000 -90.69992 36002 ft 379 kts 261°
2026-05-05 08:30 31.79336 -90.78741 35942 ft 379 kts 261°
2026-05-05 08:30 31.77560 -90.84585 35955 ft 380 kts 261°
2026-05-05 08:31 31.75775 -90.90441 35963 ft 381 kts 261°
2026-05-05 08:31 31.73984 -90.96267 35981 ft 382 kts 260°
2026-05-05 08:32 31.72180 -91.02133 35990 ft 382 kts 261°
2026-05-05 08:32 31.70380 -91.08009 35997 ft 383 kts 260°
2026-05-05 08:33 31.68566 -91.13891 36003 ft 383 kts 260°
2026-05-05 08:33 31.66753 -91.19766 35988 ft 383 kts 260°
2026-05-05 08:34 31.64936 -91.25642 35989 ft 383 kts 260°
2026-05-05 08:34 31.63118 -91.31512 35982 ft 383 kts 260°
2026-05-05 08:35 31.61293 -91.37383 35984 ft 383 kts 260°
2026-05-05 08:35 31.59469 -91.43251 35984 ft 383 kts 260°
2026-05-05 08:36 31.57642 -91.49117 35983 ft 383 kts 260°
2026-05-05 08:36 31.55810 -91.54982 35961 ft 383 kts 259°
2026-05-05 08:37 31.53978 -91.60850 35967 ft 383 kts 259°
2026-05-05 08:37 31.52155 -91.66689 35975 ft 384 kts 259°
2026-05-05 08:38 31.50314 -91.72564 35949 ft 384 kts 259°
2026-05-05 08:38 31.48460 -91.78452 35954 ft 385 kts 259°
2026-05-05 08:39 31.46602 -91.84345 35955 ft 386 kts 259°
2026-05-05 08:39 31.44744 -91.90237 35960 ft 386 kts 259°
2026-05-05 08:40 31.42884 -91.96133 35946 ft 386 kts 259°
2026-05-05 08:40 31.41017 -92.02032 35951 ft 386 kts 259°
2026-05-05 08:41 31.39144 -92.07930 35957 ft 386 kts 259°
2026-05-05 08:41 31.37272 -92.13818 35957 ft 386 kts 259°
2026-05-05 08:42 31.35399 -92.19701 35955 ft 386 kts 259°
2026-05-05 08:42 31.33519 -92.25587 35956 ft 386 kts 259°
2026-05-05 08:43 31.31636 -92.31470 35953 ft 386 kts 259°
2026-05-05 08:43 31.29763 -92.37341 35956 ft 385 kts 259°
2026-05-05 08:44 31.27887 -92.43211 35958 ft 385 kts 259°
2026-05-05 08:44 31.26018 -92.49026 35957 ft 385 kts 258°
2026-05-05 08:45 31.23636 -92.54735 35954 ft 393 kts 253°
2026-05-05 08:45 31.21134 -92.60411 35910 ft 393 kts 252°
2026-05-05 08:46 31.18622 -92.66101 35917 ft 394 kts 252°
2026-05-05 08:46 31.16097 -92.71804 35924 ft 395 kts 252°
2026-05-05 08:47 31.13572 -92.77498 35935 ft 395 kts 252°
2026-05-05 08:47 31.11048 -92.83192 35935 ft 395 kts 252°
2026-05-05 08:48 31.08544 -92.88844 35937 ft 395 kts 252°
2026-05-05 08:48 31.06012 -92.94529 35933 ft 395 kts 252°
2026-05-05 08:49 31.03477 -93.00216 35940 ft 395 kts 252°
2026-05-05 08:49 31.00944 -93.05902 35925 ft 395 kts 252°
2026-05-05 08:50 30.98403 -93.11592 35928 ft 396 kts 252°
2026-05-05 08:50 30.95852 -93.17278 35931 ft 396 kts 252°
2026-05-05 08:51 30.93300 -93.22963 35941 ft 396 kts 252°
2026-05-05 08:51 30.90749 -93.28651 35922 ft 396 kts 252°
2026-05-05 08:52 30.88209 -93.34311 35927 ft 397 kts 252°
2026-05-05 08:52 30.85647 -93.40006 35931 ft 397 kts 252°
2026-05-05 08:53 30.83078 -93.45697 35935 ft 397 kts 252°
2026-05-05 08:53 30.80505 -93.51394 35934 ft 398 kts 252°
2026-05-05 08:54 30.77928 -93.57091 35930 ft 398 kts 252°
2026-05-05 08:54 30.75350 -93.62783 35927 ft 398 kts 252°
2026-05-05 08:55 30.72766 -93.68466 35919 ft 398 kts 251°
2026-05-05 08:55 30.70179 -93.74148 35915 ft 397 kts 252°
2026-05-05 08:56 30.67598 -93.79825 35918 ft 397 kts 252°
2026-05-05 08:56 30.65013 -93.85502 35905 ft 397 kts 251°
2026-05-05 08:57 30.62447 -93.91139 35907 ft 397 kts 251°
2026-05-05 08:57 30.59859 -93.96813 35913 ft 398 kts 251°
2026-05-05 08:58 30.57261 -94.02476 35914 ft 398 kts 251°
2026-05-05 08:58 30.54656 -94.08154 35916 ft 398 kts 251°
2026-05-05 08:59 30.52052 -94.13821 35914 ft 398 kts 251°
2026-05-05 08:59 30.49444 -94.19486 35904 ft 398 kts 251°
2026-05-05 09:00 30.46837 -94.25152 35912 ft 398 kts 251°
2026-05-05 09:00 30.44224 -94.30816 35920 ft 398 kts 251°
2026-05-05 09:01 30.41607 -94.36479 35925 ft 398 kts 251°
2026-05-05 09:01 30.38998 -94.42132 35926 ft 398 kts 251°
2026-05-05 09:02 30.36382 -94.47783 35922 ft 398 kts 251°
2026-05-05 09:02 30.33759 -94.53436 35923 ft 398 kts 251°
2026-05-05 09:03 30.31136 -94.59085 35899 ft 398 kts 250°
2026-05-05 09:03 30.28525 -94.64699 35909 ft 399 kts 250°
2026-05-05 09:04 30.25891 -94.70352 35914 ft 399 kts 250°
2026-05-05 09:04 30.23252 -94.76007 35919 ft 399 kts 250°
2026-05-05 09:05 30.20596 -94.81661 35917 ft 399 kts 250°
2026-05-05 09:05 30.17948 -94.87313 35924 ft 399 kts 250°
2026-05-05 09:06 30.15307 -94.92957 35921 ft 399 kts 250°
2026-05-05 09:06 30.12663 -94.98593 35911 ft 399 kts 249°
2026-05-05 09:07 30.10023 -95.04224 35912 ft 399 kts 249°
2026-05-05 09:07 30.07370 -95.09853 35912 ft 399 kts 249°
2026-05-05 09:08 30.04709 -95.15480 35913 ft 399 kts 249°
2026-05-05 09:08 30.02059 -95.21105 35910 ft 399 kts 249°
2026-05-05 09:09 29.99399 -95.26733 35888 ft 399 kts 249°
2026-05-05 09:09 29.96751 -95.32317 35892 ft 400 kts 249°
2026-05-05 09:10 29.94915 -95.38214 35886 ft 387 kts 262°
2026-05-05 09:10 29.93671 -95.44257 35893 ft 388 kts 262°
2026-05-05 09:11 29.92406 -95.50301 35888 ft 388 kts 262°
2026-05-05 09:11 29.91123 -95.56347 35892 ft 388 kts 262°
2026-05-05 09:12 29.90055 -95.61373 35893 ft 388 kts 262°
2026-05-05 09:12 29.88773 -95.67420 35889 ft 388 kts 262°
2026-05-05 09:13 29.87282 -95.74443 35908 ft 388 kts 261°
2026-05-05 09:13 29.85994 -95.80478 35923 ft 387 kts 261°
2026-05-05 09:14 29.84931 -95.85486 35925 ft 387 kts 262°
2026-05-05 09:14 29.83655 -95.91505 35927 ft 387 kts 261°
2026-05-05 09:15 29.82372 -95.97517 35925 ft 387 kts 261°
2026-05-05 09:15 29.81071 -96.03526 35912 ft 387 kts 261°
2026-05-05 09:16 29.79781 -96.09534 35883 ft 386 kts 261°
2026-05-05 09:16 29.78486 -96.15542 35872 ft 385 kts 261°
2026-05-05 09:17 29.78171 -96.21591 35871 ft 377 kts 277°
2026-05-05 09:17 29.78639 -96.27606 35866 ft 377 kts 276°
2026-05-05 09:18 29.79080 -96.33591 35855 ft 377 kts 276°
2026-05-05 09:18 29.79524 -96.39608 35849 ft 377 kts 276°
2026-05-05 09:19 29.79970 -96.45632 35833 ft 377 kts 276°
2026-05-05 09:19 29.80414 -96.51660 35809 ft 378 kts 276°
2026-05-05 09:20 29.80858 -96.57689 35775 ft 378 kts 276°
2026-05-05 09:20 29.81305 -96.63725 35777 ft 378 kts 276°
2026-05-05 09:21 29.81751 -96.69764 35799 ft 378 kts 276°
2026-05-05 09:21 29.82185 -96.75805 35756 ft 379 kts 276°
2026-05-05 09:21 29.82400 -96.78783 35508 ft 378 kts 276°
2026-05-05 09:22 29.82619 -96.81799 35259 ft 379 kts 276°
2026-05-05 09:22 29.82838 -96.84825 35033 ft 380 kts 276°
2026-05-05 09:22 29.83056 -96.87862 34800 ft 381 kts 276°
2026-05-05 09:22 29.83272 -96.90911 34571 ft 383 kts 276°
2026-05-05 09:23 29.83489 -96.93969 34342 ft 384 kts 276°
2026-05-05 09:23 29.83708 -96.97040 34115 ft 385 kts 276°
2026-05-05 09:23 29.83932 -97.00120 33907 ft 387 kts 276°
2026-05-05 09:23 29.84156 -97.03205 33346 ft 387 kts 276°
2026-05-05 09:24 29.84380 -97.06305 32587 ft 388 kts 276°
2026-05-05 09:24 29.84603 -97.09409 31703 ft 392 kts 276°
2026-05-05 09:24 29.84829 -97.12569 30745 ft 398 kts 276°
2026-05-05 09:24 29.85056 -97.15772 29812 ft 403 kts 276°
2026-05-05 09:25 29.85284 -97.19012 28661 ft 409 kts 276°
2026-05-05 09:25 29.85512 -97.22289 27538 ft 412 kts 276°
2026-05-05 09:25 29.85739 -97.25586 26620 ft 411 kts 275°
2026-05-05 09:25 29.85963 -97.28847 25882 ft 406 kts 275°
2026-05-05 09:26 29.86182 -97.32060 25149 ft 401 kts 275°
2026-05-05 09:26 29.86402 -97.35266 24396 ft 397 kts 275°
2026-05-05 09:26 29.86619 -97.38420 23659 ft 394 kts 275°
2026-05-05 09:26 29.86832 -97.41551 22847 ft 390 kts 275°
2026-05-05 09:27 29.87041 -97.44609 22133 ft 385 kts 275°
2026-05-05 09:27 29.87249 -97.47667 21424 ft 381 kts 275°
2026-05-05 09:27 29.87453 -97.50693 20738 ft 377 kts 275°
2026-05-05 09:27 29.87656 -97.53700 20057 ft 376 kts 275°
2026-05-05 09:28 29.87858 -97.56709 19394 ft 375 kts 275°
2026-05-05 09:28 29.88055 -97.59703 18758 ft 375 kts 275°
2026-05-05 09:28 29.88253 -97.62710 18128 ft 376 kts 275°
2026-05-05 09:28 29.88450 -97.65711 17460 ft 375 kts 275°
2026-05-05 09:29 29.88650 -97.68706 16803 ft 375 kts 275°
2026-05-05 09:29 29.88849 -97.71691 16202 ft 373 kts 275°
2026-05-05 09:29 29.89047 -97.74662 15583 ft 371 kts 275°
2026-05-05 09:29 29.89240 -97.77615 14968 ft 369 kts 275°
2026-05-05 09:30 29.89432 -97.80557 14339 ft 367 kts 275°
2026-05-05 09:30 29.89618 -97.83484 13697 ft 366 kts 274°
2026-05-05 09:30 29.89461 -97.86399 13128 ft 363 kts 261°
2026-05-05 09:30 29.88773 -97.89105 12944 ft 341 kts 251°
2026-05-05 09:31 29.87949 -97.91591 12515 ft 322 kts 252°
2026-05-05 09:31 29.87162 -97.94001 12257 ft 322 kts 252°
2026-05-05 09:31 29.86375 -97.96420 12013 ft 322 kts 252°
2026-05-05 09:31 29.85582 -97.98832 11772 ft 323 kts 252°
2026-05-05 09:32 29.84796 -98.01252 11248 ft 322 kts 255°
2026-05-05 09:32 29.84374 -98.03733 10696 ft 320 kts 268°
2026-05-05 09:32 29.84472 -98.06271 10176 ft 317 kts 279°
2026-05-05 09:32 29.84783 -98.08693 10002 ft 293 kts 279°
2026-05-05 09:33 29.85059 -98.10926 9862 ft 271 kts 278°
2026-05-05 09:33 29.85314 -98.13036 9532 ft 260 kts 278°
2026-05-05 09:33 29.85562 -98.15102 9411 ft 262 kts 278°
2026-05-05 09:33 29.85814 -98.17193 9168 ft 264 kts 278°
2026-05-05 09:34 29.86067 -98.19291 8730 ft 266 kts 277°
2026-05-05 09:34 29.86322 -98.21396 8447 ft 263 kts 277°
2026-05-05 09:34 29.86574 -98.23466 8215 ft 258 kts 277°
2026-05-05 09:34 29.86821 -98.25505 7911 ft 255 kts 276°
2026-05-05 09:35 29.87066 -98.27526 7372 ft 254 kts 276°
2026-05-05 09:35 29.87546 -98.31507 6976 ft 239 kts 276°
2026-05-05 09:35 29.87769 -98.33332 6870 ft 220 kts 275°
2026-05-05 09:36 29.87947 -98.35015 6781 ft 210 kts 267°
2026-05-05 09:36 29.87589 -98.36598 6782 ft 206 kts 244°
2026-05-05 09:36 29.86949 -98.38073 6777 ft 203 kts 244°
2026-05-05 09:36 29.86344 -98.39457 6798 ft 186 kts 244°
2026-05-05 09:37 29.85761 -98.40783 6795 ft 185 kts 244°
2026-05-05 09:37 29.85183 -98.42096 6774 ft 184 kts 244°
2026-05-05 09:37 29.84604 -98.43415 6777 ft 185 kts 244°
2026-05-05 09:37 29.84021 -98.44746 6776 ft 187 kts 243°
2026-05-05 09:38 29.83435 -98.46086 6781 ft 187 kts 243°
2026-05-05 09:38 29.82839 -98.47417 6784 ft 187 kts 239°
2026-05-05 09:38 29.81976 -98.48538 6792 ft 189 kts 220°
2026-05-05 09:38 29.80813 -98.49270 6589 ft 194 kts 201°
2026-05-05 09:39 29.79512 -98.49578 6319 ft 192 kts 194°
2026-05-05 09:39 29.78205 -98.49859 6046 ft 189 kts 194°
2026-05-05 09:39 29.76918 -98.50142 5786 ft 187 kts 194°
2026-05-05 09:39 29.75648 -98.50422 5535 ft 184 kts 194°
2026-05-05 09:40 29.74388 -98.50699 5292 ft 183 kts 194°
2026-05-05 09:40 29.73147 -98.50972 5052 ft 181 kts 194°
2026-05-05 09:40 29.71912 -98.51244 4814 ft 180 kts 193°
2026-05-05 09:40 29.70688 -98.51515 4571 ft 178 kts 193°
2026-05-05 09:41 29.69475 -98.51732 4333 ft 176 kts 185°
2026-05-05 09:41 29.68267 -98.51524 4095 ft 178 kts 167°
2026-05-05 09:41 29.67169 -98.50837 3856 ft 184 kts 147°
2026-05-05 09:41 29.66269 -98.49791 3618 ft 185 kts 141°
2026-05-05 09:42 29.65389 -98.48719 3380 ft 184 kts 142°
2026-05-05 09:42 29.64512 -98.47658 3141 ft 182 kts 141°
2026-05-05 09:42 29.63647 -98.46611 2897 ft 180 kts 142°
2026-05-05 09:42 29.62785 -98.45570 2662 ft 179 kts 142°
2026-05-05 09:43 29.61954 -98.44559 2419 ft 167 kts 142°
2026-05-05 09:43 29.61223 -98.43656 2209 ft 143 kts 143°
2026-05-05 09:43 29.60551 -98.42864 2017 ft 134 kts 148°
2026-05-05 09:43 29.59753 -98.42293 1852 ft 136 kts 160°
2026-05-05 09:44 29.58860 -98.41997 1688 ft 137 kts 175°
2026-05-05 09:44 29.57923 -98.42017 1513 ft 135 kts 193°
2026-05-05 09:44 29.57044 -98.42397 1337 ft 135 kts 208°
2026-05-05 09:44 29.56303 -98.43065 1141 ft 141 kts 218°
2026-05-05 09:45 29.55580 -98.43787 1079 ft 137 kts 220°
2026-05-05 09:45 29.54859 -98.44483 1043 ft 138 kts 218°
2026-05-05 09:45 29.54142 -98.45198 899 ft 136 kts 219°
2026-05-05 09:45 29.53455 -98.45888 800 ft 116 kts 217°
2026-05-05 09:46 29.53017 -98.46304 796 ft 43 kts 220°
2026-05-05 09:46 29.52811 -98.46511 796 ft 25 kts 221°
2026-05-05 09:46 29.52696 -98.46629 796 ft 18 kts 225°
2026-05-05 09:46 29.52706 -98.46738 796 ft 16 kts 309°
2026-05-05 09:47 29.52709 -98.46847 796 ft 15 kts 263°
2026-05-05 09:47 29.52654 -98.46923 796 ft 13 kts 219°
2026-05-05 09:47 29.52596 -98.46993 796 ft 11 kts 250°
2026-05-05 09:47 29.52604 -98.47061 796 ft 3 kts 305°
2026-05-05 09:48 29.52617 -98.47072 796 ft 0 kts 326°